Regional Weather Roundup
Issued by NWS

Home | Current Version | Previous Version | Graphics & Text | Print | Product List | Glossary On
Versions: 1 2 3 4 5 6 7 8 9 10 11 12 13 14 15 16 17 18 19 20 21 22 23 24 25 26 27 28 29 30 31 32 33 34 35 36 37 38 39 40 41 42 43 44 45 46 47 48 49 50
000
ASUS45 KBOU 191010
RWRCO

WEATHER ROUNDUP FOR COLORADO
NATIONAL WEATHER SERVICE DENVER/BOULDER CO
300 AM MST SUN NOV 19 2017

NOTE: "FAIR" INDICATES FEW OR NO CLOUDS BELOW 12000 FEET WITH NO
SIGNIFICANT WEATHER AND/OR OBSTRUCTIONS TO VISIBILITY.

COZ001>005-013-030-031-191100-
...NORTHWEST COLORADO...

CITY           SKY/WX    TMP DP  RH WIND       PRES   REMARKS
CRAIG          FAIR      11   6  81 SW3       30.36S
HAYDEN         FAIR      16   9  74 E13       30.37S WCI   2
MEEKER         FAIR      13   9  84 MISG      30.36S
RABBIT EARS PA FAIR      16   9  73 W7        30.30F WCI   6
STEAMBOAT SPGS FAIR       8   6  89 CALM      30.36S
WALDEN         FAIR       9   1  72 SE8       30.30F WCI  -4
$$

COZ006>008-011-191100-
...WEST CENTRAL VALLEYS...

CITY           SKY/WX    TMP DP  RH WIND       PRES   REMARKS
GRAND JUNCTION FAIR      18  14  84 E3        30.38F
MONTROSE       FAIR      20  15  81 S6        30.41S WCI  12
EAGLE          FAIR      14  10  84 SE5       30.43S WCI   6
RIFLE          FAIR      19  15  84 CALM      30.41S
DELTA          FAIR      22  15  74 CALM      30.41S
NUCLA          FAIR      21  12  68 SE6       30.41S WCI  14
$$

COZ017>023-064>068-191100-
...SOUTHWEST COLORADO...

CITY           SKY/WX    TMP DP  RH WIND       PRES   REMARKS
DURANGO        FAIR      17  11  77 CALM      30.34F
CORTEZ         FAIR      12   8  84 E5        30.37S WCI   4
PAGOSA SPRINGS FAIR      19  17  88 CALM      30.35F
TELLURIDE      FAIR      23   4  45 SE8       30.37S WCI  14
WOLF CREEK PAS FAIR      23  -9  23 SW6       30.42F WCI  16
$$

COZ009-010-012-014-032>034-037-058>063-191100-
...CENTRAL COLORADO...

CITY           SKY/WX    TMP DP  RH WIND       PRES   REMARKS
ASPEN          FAIR      11   6  81 S6        30.34S WCI   1
BUENA VISTA    FAIR      18   9  69 CALM      30.33S
COPPER MTN     FAIR      23   0  36 MISG      30.33S
BERTHOUD PASS  FAIR      14   3  62 NW36G44   30.24S WCI  -8
COTTONWOOD PAS FAIR      32   1  27 N5        30.31S WCI  27
GUNNISON       FAIR       9   5  84 CALM      30.44S
KREMMLING      FAIR      18  12  79 CALM      30.39F
LEADVILLE      FAIR      13   2  61 NE13      30.30S WCI  -2
MONARCH PASS   FAIR      16  -6  38 W31       30.43S WCI  -5
SALIDA         FAIR      25  11  54 NW16G22   30.38S WCI  12
SUNLIGHT       FAIR      18   1  49 SW14      30.38S WCI   4
WILKERSON PASS FAIR      21  -6  30 SW9       30.34S WCI  11
$$

COZ069>075-191100-
...SAN LUIS VALLEY/SANGRE DE CRISTO MOUNTAINS...

CITY           SKY/WX    TMP DP  RH WIND       PRES   REMARKS
ALAMOSA        FAIR       7   3  84 CALM      30.37S
DEL NORTE      FAIR      18   6  60 W14       30.36S WCI   4
LA VETA PASS   FAIR      21   5  49 S31G40      N/A  WCI   3
SAGUACHE       FAIR      18   3  53 N13       30.37F WCI   4
$$

COZ035-036-038>040-191100-
...NORTHERN COLORADO FRONT RANGE...

CITY           SKY/WX    TMP DP  RH WIND       PRES   REMARKS
DENVER INTL AP FAIR      29  14  53 SW5       30.19S WCI  24
DMNS CITY PARK   N/A     28  17  62 N3G10     30.19F
AURORA         PTCLDY    31  13  46 S8        30.19F WCI  23
FRONT RANGE AP FAIR      26  19  77 S6        30.20S WCI  19
ERIE MUNI ARPT FAIR      21  17  85 E3        30.26S
BOULDER MUN AP FAIR      30  18  59 NE3       30.18F
CENTENNIAL     FAIR      27  14  58 VRB3      30.19F
BROOMFIELD     FAIR      32  18  55 NW6       30.19F WCI  26
FORT COLLINS   FAIR      26  18  71 CALM      30.20F
LONGMONT       FAIR      23  17  77 CALM      30.22F
$$

COZ041-046-047-076>085-087-088-191100-
...PIKES PEAK/PALMER DIVIDE AND SOUTHERN FOOTHILLS...

CITY           SKY/WX    TMP DP  RH WIND       PRES   REMARKS
COLO. SPRINGS  FAIR      28  18  66 NE9       30.22S WCI  19
A. F. ACADEMY  FAIR      24  12  60 W6        30.21S WCI  17
SCHRIEVER AFB  FAIR      29  18  62 N7        30.22F WCI  22
CHEYENNE MTN   FAIR      36   8  32 CALM      30.16S
ELLICOTT       NOT AVBL
FALCON         FAIR      33   7  34 NW9       30.22S WCI  25
FORT CARSON    FAIR      24  17  75 NW7       30.20S WCI  15
LIMON          FAIR      12  10  92 CALM      30.21F
MONUMENT HILL  FAIR      28   9  43 SW7       30.23S WCI  21
CANON CITY     FAIR      39  10  30 W18       30.19F
WALSENBURG     FAIR      41   7  24 W17G23    30.20F
TRINIDAD       FAIR      30  18  60 W12       30.22F WCI  20
$$

COZ042>045-048>051-090-091-191100-
...NORTHEAST COLORADO...

CITY           SKY/WX    TMP DP  RH WIND       PRES   REMARKS
GREELEY ARPT   FAIR      18  14  84 NW6       30.21F WCI  10
AKRON          FAIR      24  16  71 SW12      30.18F WCI  13
BURLINGTON     FAIR      18  12  77 SW7       30.23F WCI   9
WRAY           NOT AVBL
YUMA           FAIR      21  16  79 SW8       30.19F WCI  12
STERLING       FAIR      18  12  79 NW3       30.20F
HOLYOKE        FAIR      23  14  68 SW9       30.21F WCI  13
FORT MORGAN    FAIR      18  13  80 W7        30.19F WCI   8
$$

COZ086-089-092>099-191100-
...SOUTHEAST COLORADO...

CITY           SKY/WX    TMP DP  RH WIND       PRES   REMARKS
PUEBLO         FAIR      21  17  84 CALM      30.23S
LA JUNTA       FAIR      23  18  81 W9        30.23F WCI  13
LAMAR          FAIR      13   8  81 SW6       30.23S WCI   4
SPRINGFIELD      N/A     22  15  75 SW3       30.22S
$$



USA.gov is the U.S. government's official web portal to all federal, state and local government web resources and services.